O3B FM18 (44115 NORAD) Tracking and Keplerian Element Data

This shows tracking and keplerian element data for the satellite.

Feedback or suggestion? Click here.




ElementValue
Catalog44115
NameO3B FM18
Epoch Orbit540
Epoch Day201.8474755
Epoch Year2019
RAAN9.4451
Inclination0.0466
Eccentricity0.0002762
Argument of Perigee110.5671
Mean Anonmoly240.0128
Mean Motion5.00116493
Decay Rate-2.6E-07
L11 44115U 19020D 19201.84747550 -.00000026 00000-0 00000-0 0 9999
L22 44115 0.0466 9.4451 0002762 110.5671 240.0128 5.00116493 5409

Live tracking and technical data element details for O3B FM18 (NORAD 44115). O3B FM18 can be tracked NOW for your location showing map with azimuth and elevation plus other details from your city location.

Track the satellite on the map from your city or location and see movement details for azimuth, elevation, latitude, longitude, range, height, and movement on the map or in text.







IsCatalogInMostPopularTable: catalog: 44115, numindb: 42
Update: records affected: 1



GetName: 44115 O3B FM18

Hit Count: updated at: Sun, 21 Jul 2019 15:23:02 GMT